DELTA 1 DEB

Satellite information

Favourite Embed

Satellite Type and Status

DEBRISIN ORBIT

Key statistics

Satellite DELTA 1 DEB at a glance.

Uptime

19032

Days in orbit

Revolutions

≈ 12.4

Per day

Orbit

SSO

Sun Synchronous Orbit

Inclination

102.1

Latest

Satellite identification and parameters

Extended collection of information and parameters for DELTA 1 DEB.

Object identification

Identified? True

Debris? True

Object name: DELTA 1 DEB

International designator: 1973-086AA

Object number (NORAD): 7034

Object ID (CCSDS): 7034

Country: UNITED STATES OF AMERICA (US)

Current information (Y/N): Y

RCS size: SMALL

Orbital parameters

Period: 115.771 minutes

Inclination: 102.1027 deg

SMA: 7868.537 km

Apoapsis: 1503.661 km

Periapsis: 1477.142 km

RAAN: 323.7445 deg

Eccentricy: 0.00168513

Argument of periapsis: 355.8521 deg

Mean anomaly: 123.3152 deg

Mean motion: 12.43832173 rev/day

Mean motion (dot): 0.0000005 rev/day2

B* drag term: 0.00068472559 1/REarth

Two-line elements (TLE)

Creation date: Dec. 14, 2025, 3:07 a.m.

Reference frame: TEME

Reference center: EARTH

Epoch: Dec. 13, 2025, 11:18 a.m. UTC

TLE line 0: 0 DELTA 1 DEB

TLE line 1: 1 07034U 73086AA 25347.47152404 .00000050 00000-0 68473-3 0 9992

TLE line 2: 2 07034 102.1027 323.7445 0016851 355.8521 123.3152 12.43832173362830

Live tracking on map

Real-time ground track for satellite DELTA 1 DEB.

In-orbit conjunctions

A list of the most updated potential collisions computed for object DELTA 1 DEB.

Target Orbit TCA Probability of collision Miss distance Type
COSMOS 2353 LEO 2025-07-04 23:14:05 0.0001105203 279.0 (m) PAYLOAD

Associated space launch

Meteorological satellite using radiometric imaging

DELTA 1 DEB was lifted into orbit during the mission ‘Delta 0300 | NOAA 3’, on board a Delta 0300 space rocket.

The launch took place on Nov. 6, 1973, 5:02 p.m. from Space Launch Complex 2W.

For more information about the launch, click the button.

Launch to space Delta 0300 | NOAA 3
Delta 0300 | NOAA 3

Agency: N/A

Status: Launch Successful

Launch date: Nov. 6, 1973, 5:02 p.m. UTC

Rocket: Delta 0300

Launch pad: Space Launch Complex 2W

Location: Vandenberg SFB, CA, USA

...

Latest news about this satellite

There are no fresh news available about this satellite. Check back as we update our databases every day.


Newsletter sign-up

Weekly statistics, charts and insights to help you stay on top of the space industry.